Weather History for Selinsgrove, PA

Change the Weather History Date:

Friday, January 25, 2013

  Actual Average (KIPT) Record (KIPT)
Temperature  
Mean Temperature 14 °F 27 °F  
Max Temperature 17 °F 34 °F 69 °F (1967)
Min Temperature 10 °F 19 °F -6 °F (1963)
Degree Days  
Heating Degree Days 52 38  
Month to date heating degree days 958  
Since 1 July heating degree days 3251  
Cooling Degree Days 0 0  
Month to date cooling degree days 0  
Year to date cooling degree days 0  
Moisture  
Dew Point 8 °F    
Average Humidity 76    
Maximum Humidity 92    
Minimum Humidity 54    
Precipitation  
Precipitation 0.07 in 0.08 in 2.90 in (2010)
Month to date precipitation 2.17  
Year to date precipitation 2.17  
Snow  
Snow 0.00 in - - ()
Month to date snowfall  
Since 1 July snowfall  
Snow Depth -    
Sea Level Pressure  
Sea Level Pressure 30.25 in    
Wind  
Wind Speed 2 mph (SSW)    
Max Wind Speed 8 mph    
Max Gust Speed -    
Visibility 6 miles    
Events Fog , Snow    
T = Trace of Precipitation, MM = Missing Value Source: NWS Daily Summary

Daily Weather History Graph

Daily Weather History Graph

Search for Another Location

Airport:

Trip Planner

Search our weather history database for the weather conditions in past years. The results will help you decide how hot, cold, wet, or windy it might be!

Date:

Astronomy

Jan. 25, 2013 Rise Set
Actual Time 7:23 AM EST 5:16 PM EST
Civil Twilight 6:54 AM EST 5:46 PM EST
Nautical Twilight 6:20 AM EST 6:19 PM EST
Astronomical Twilight 5:48 AM EST 6:51 PM EST
Moon 4:11 PM EST (1/25) 6:01 AM EST (1/25)
Length of Visible Light 10h 52m
Length of Day
9h 53m
Waxing Gibbous, 98% of the Moon is Illuminated
Jan 25
Waxing Gibbous
Jan 26
Full
Feb 3
Last Quarter
Feb 10
New
Feb 17
First Quarter

Hourly Weather History & Observations

Time (EST) Temp. Windchill Dew Point Humidity Pressure Visibility Wind Dir Wind Speed Gust Speed Precip Events Conditions
12:53 AM 14.0 °F 5.1 °F -0.0 °F 54% 30.51 in 10.0 mi WNW 5.8 mph - N/A   Clear
1:53 AM 12.9 °F 6.9 °F 1.0 °F 59% 30.50 in 10.0 mi NW 3.5 mph - N/A   Clear
2:53 AM 12.0 °F - 1.9 °F 64% 30.51 in 10.0 mi Calm Calm - N/A   Clear
3:53 AM 10.9 °F - 3.0 °F 70% 30.51 in 10.0 mi Calm Calm - N/A   Clear
4:53 AM 10.9 °F - 3.9 °F 73% 30.50 in 10.0 mi Calm Calm - N/A   Clear
5:53 AM 12.0 °F - 3.9 °F 70% 30.48 in 10.0 mi Calm Calm - N/A   Clear
6:53 AM 12.9 °F 6.9 °F 3.0 °F 65% 30.45 in 10.0 mi NW 3.5 mph - N/A   Clear
7:53 AM 12.9 °F - 1.9 °F 62% 30.45 in 10.0 mi Calm Calm - N/A   Clear
8:53 AM 14.0 °F 8.2 °F 1.0 °F 56% 30.43 in 10.0 mi NW 3.5 mph - N/A   Partly Cloudy
9:53 AM 14.0 °F - -0.0 °F 54% 30.41 in 10.0 mi Calm Calm - N/A   Overcast
10:53 AM 15.1 °F - 1.0 °F 54% 30.40 in 10.0 mi Calm Calm - N/A   Overcast
11:53 AM 16.0 °F - 1.9 °F 54% 30.35 in 10.0 mi Calm Calm - N/A   Overcast
12:53 PM 17.1 °F 8.7 °F 3.0 °F 54% 30.28 in 10.0 mi South 5.8 mph - N/A   Overcast
1:53 PM 17.1 °F 6.6 °F 7.0 °F 65% 30.22 in 3.0 mi SSE 8.1 mph - 0.00 in Snow Light Snow
2:26 PM 17.6 °F 8.2 °F 8.6 °F 68% 30.19 in 1.2 mi South 6.9 mph - 0.00 in Snow Light Snow
2:35 PM 15.8 °F 8.6 °F 10.4 °F 79% 30.19 in 1.0 mi South 4.6 mph - 0.00 in Snow Light Snow
2:42 PM 15.8 °F 10.2 °F 10.4 °F 79% 30.18 in 0.8 mi South 3.5 mph - 0.00 in Snow Light Snow
2:53 PM 16.0 °F 8.8 °F 12.0 °F 84% 30.19 in 0.5 mi South 4.6 mph - 0.01 in Fog , Snow Snow
3:02 PM 15.8 °F 8.6 °F 12.2 °F 86% 30.17 in 0.2 mi South 4.6 mph - 0.00 in Fog , Snow Snow
3:25 PM 15.8 °F 7.2 °F 12.2 °F 86% 30.16 in 0.8 mi South 5.8 mph - 0.01 in Snow Light Snow
3:53 PM 16.0 °F 8.8 °F 12.0 °F 84% 30.17 in 0.8 mi South 4.6 mph - 0.02 in Snow Light Snow
4:09 PM 15.8 °F - 12.2 °F 86% 30.15 in 0.8 mi Calm Calm - 0.00 in Snow Light Snow
4:17 PM 15.8 °F - 12.2 °F 86% 30.14 in 0.8 mi Calm Calm - 0.00 in Snow Light Snow
4:53 PM 17.1 °F - 12.9 °F 84% 30.16 in 0.2 mi Calm Calm - 0.02 in Fog , Snow Snow
5:22 PM 15.8 °F - 12.2 °F 86% 30.13 in 1.0 mi Calm Calm - 0.01 in Snow Light Snow
5:37 PM 15.8 °F - 12.2 °F 86% 30.11 in 1.5 mi Calm Calm - 0.01 in Snow Light Snow
5:53 PM 16.0 °F - 12.9 °F 88% 30.14 in 1.2 mi Calm Calm - 0.01 in Snow Light Snow
6:15 PM 15.8 °F - 12.2 °F 86% 30.11 in 2.5 mi Calm Calm - 0.01 in Snow Light Snow
6:25 PM 14.0 °F - 10.4 °F 86% 30.11 in 4.0 mi Calm Calm - 0.01 in Snow Light Snow
6:33 PM 14.0 °F - 10.4 °F 86% 30.11 in 6.0 mi Calm Calm - 0.01 in   Overcast
6:53 PM 12.9 °F - 10.9 °F 92% 30.12 in 7.0 mi Calm Calm - 0.01 in   Overcast
7:32 PM 10.4 °F - 8.6 °F 92% 30.10 in 6.0 mi Calm Calm - 0.00 in   Overcast
7:53 PM 10.0 °F - 8.1 °F 92% 30.12 in 9.0 mi Calm Calm - 0.00 in   Overcast
8:53 PM 12.0 °F - 10.0 °F 92% 30.10 in 8.0 mi Calm Calm - N/A   Overcast
9:53 PM 12.9 °F - 10.0 °F 88% 30.09 in 6.0 mi Calm Calm - N/A   Overcast
10:53 PM 14.0 °F - 10.9 °F 88% 30.09 in 6.0 mi Calm Calm - N/A   Overcast
11:53 PM 14.0 °F 8.2 °F 10.9 °F 88% 30.11 in 6.0 mi NNW 3.5 mph - N/A   Overcast